STARLINK-36936, 68012

Orbit data source: Space-Track

STARLINK-36936, 68012 is a payload satellite owned by SpaceX/Seattle (US) in LEO that was launched on Fri, 27 Feb 2026 UTC via an FALCON 9 launch vehicle from the Air Force Eastern Test Range (AFETR). Payload-class satellites include a variety of spacecraft equipped with specific instruments for various scientific and technological missions. These include communications satellites like Starlink; space stations such as the ISS; scientific satellites like the Hubble; Earth observation satellites from companies like Planet Labs, Umbra, and HawkEye 360; GPS; miniature CubeSats for education and research; and military/defense satellites.

Loading next visibility...
Identifier
68012, 2026-039AC
Orbit
LEO
Country
Flag of USUS
Related business
Manufacturer
SpaceX/Seattle
Mission
Operational Commercial Communications
Bus & Motor
STARLINK V2MO, Unknown motor
Mass
575 kg wet, ~530 kg dry
Launch date (UTC)
2026-02-27 (2 months ago)
Launch vehicle
FALCON 9
Launch site
Air Force Eastern Test Range (AFETR)
Object type
Payload
Rocket body
Debris
Shape & HBR
Box + 2 Pan, 17.7 m
Radar Cross Section
36.964 m²

Expand to show TLE details & history
Last TLE update: 9 hours ago

TLE from 9 hours ago
0 STARLINK-36936
1 68012U 26039AC  26119.27538268  .00015744  00000-0  58038-3 0  9995
2 68012  43.0022 122.9088 0001283 261.5069  98.5638 15.27582919  9448
Epoch: 2026-04-29T06:36Z
TLE epoch observation values (Epoch: 2026-04-29T06:36:33.063Z)
Latitude
0.00003°
Longitude
166.53239°
Altitude
482.947 km
Speed
7.626 km/s
True Right ascension
08h 11m 38s
True Declination
0° 00' 00"
Sunlit
Object was in daylight at epoch
Visualization orbit readout
Latitude
Unknown
Longitude
Unknown
Altitude
Unknown
Speed
Unknown
Apparent Right ascension
Unknown
Apparent Declination
Unknown
Sunlit
N/A
Visualization observer readout
Local Sidereal Time
22:53:12
Azimuth
Unknown
Elevation
Unknown
Doppler factor
Unknown
Orbital elements
Apogee altitude
485.866 km
Perigee altitude
484.105 km
Semi-major axis
6,863.122 km
Eccentricity
0.00013
Inclination
43.0022°
RAAN
122.9088°
Arg. of periapsis
261.5069°
True anomaly
98.57834°
Mean anomaly
98.5638°
Eccentric anomaly
98.57107°
Mean motion
3.81734 °/min
Orbital period
94.31 mins
BSTAR
0.00058038
Loading maneuver chart data...
Computing Atmospheric mass density...
Loading historical data...
Loading historical data...
Loading historical data...
Loading historical data...
Loading historical data...
Loading historical data...
Loading historical data...

Documentation

Showing up to 5 results
|